Regional Weather Roundup
Issued by NWS

Home | Current Version | Previous Version | Text Only | Print | Product List | Glossary On
Versions: 1 2 3 4 5 6 7 8 9 10 11 12 13 14 15 16 17 18 19 20 21 22 23 24 25 26 27 28 29 30 31 32 33 34 35 36 37 38 39 40 41 42 43 44 45 46 47 48 49 50
000
ASUS45 KBOI 062210
RWRID

IDAHO REGIONAL WEATHER ROUNDUP
NATIONAL WEATHER SERVICE BOISE ID
400 PM MDT MON JUL 06 2015

NOTE: "FAIR" INDICATES FEW OR NO CLOUDS BELOW 12000 FEET
WITH NO SIGNIFICANT WEATHER AND/OR OBSTRUCTIONS TO VISIBILITY

IDZ012-014-062300-
SOUTHWEST IDAHO


CITY           SKY/WX    TMP DP  RH WIND       PRES   REMARKS
BOISE          SUNNY     91  51  25 W8        30.00F
CALDWELL       SUNNY     93  48  21 W7        29.99F HX  90
MOUNTAIN HOME  PTSUNNY   90  50  26 W21G29    30.01S THUNDER
$$

IDZ016-017-062300-
SOUTHCENTRAL IDAHO


CITY           SKY/WX    TMP DP  RH WIND       PRES   REMARKS
BURLEY         SUNNY     82  50  32 CALM      30.08F
JEROME         SUNNY     85  46  25 CALM      30.08F
TWIN FALLS     SUNNY     87  49  26 NW10      30.06F
$$

IDZ019>023-062300-
SOUTHEAST IDAHO


CITY           SKY/WX    TMP DP  RH WIND       PRES   REMARKS
IDAHO FALLS    PTSUNNY   66  59  78 N13       30.15R
POCATELLO      MOSUNNY   81  50  33 MISG      30.11F
REXBURG        PTSUNNY   72  51  47 SE5       30.15F
$$

IDZ006-010-011-018-031-032-062300-
CENTRAL IDAHO MOUNTAINS


CITY           SKY/WX    TMP DP  RH WIND       PRES   REMARKS
MCCALL         MOSUNNY   82  43  25 SW10      30.12S
HAILEY         PTSUNNY   75  55  50 SE9       30.17F
STANLEY          N/A     69  47  45 E12G20    30.23R
SALMON         MOSUNNY   84  48  28 NW5       29.98F
CHALLIS        RAIN      74  50  42 NW21G30   30.08R
$$

IDZ002-004-006-007-026-062300-
NORTHERN IDAHO


CITY           SKY/WX    TMP DP  RH WIND       PRES   REMARKS
LEWISTON       SUNNY     98  36  11 E9        29.93F HX  93
LOWELL           N/A     99  38  12 CALM      29.93F HX  94
COEUR D`ALENE  SUNNY     88  41  19 N6        30.00F
MULLAN PASS    MOSUNNY   74  38  27 CALM      30.24F
$$



USA.gov is the U.S. government's official web portal to all federal, state and local government web resources and services.